PulseSat

PulseSat

GSAT-15 (GAGAN/PRN 139)

Last updated on Dec. 12, 2018, 12:09 a.m. UTC

1 41028U 15065A   18344.52031195 -.00000253  00000-0  00000+0 0  9998
2 41028   0.0165 284.9136 0002335 308.0193 127.0570  1.00272599 11334
UTC
Height (km)
Latitude
Longitude
Inclination
Orbital Period

Next 30 passes for location: Hong Kong

Rise time Rise Azimuth (degrees) Set time Set Azimuth (degrees) Duration Max altitude (degrees)

No matching passes for this satellites

PulseSat

PulseSat is the new satellites software and hardware trackering solution by Pulsely.
Satellite Two Line Element Set source: US Air Force Space Command

Download PulseSat for iOS
© 2017 Pulsely Limited